Weather History for Jordan, MT

Change the Weather History Date:

Friday, September 16, 2011

  Actual Average Record
Temperature  
Mean Temperature 63 °F 57 °F  
Max Temperature 80 °F 73 °F 97 °F (1979)
Min Temperature 46 °F 41 °F 23 °F (1936)
Degree Days  
Heating Degree Days 2 9  
Month to date heating degree days 80 98  
Since 1 July heating degree days 88 163  
Cooling Degree Days 0 1  
Month to date cooling degree days 13 23  
Year to date cooling degree days 469 416  
Growing Degree Days 12 (Base 50)    
Moisture  
Dew Point 44 °F    
Average Humidity 55    
Maximum Humidity 84    
Minimum Humidity 25    
Precipitation  
Precipitation 0.03 in 0.04 in 0.33 in (1950)
Month to date precipitation 0.04 0.61  
Year to date precipitation 14.64 10.53  
Snow  
Snow 0.00 in - - ()
Month to date snowfall 0.0  
Since 1 July snowfall 0.0  
Since 1 September snowfall 0.0  
Snow Depth 0.00 in    
Sea Level Pressure  
Sea Level Pressure 29.76 in    
Wind  
Wind Speed 7 mph (East)    
Max Wind Speed 18 mph    
Max Gust Speed 24 mph    
T = Trace of Precipitation, MM = Missing Value Source: NWS Daily Summary

Daily Weather History Graph

Daily Weather History Graph

Search for Another Location

Airport:

Trip Planner

Search our weather history database for the weather conditions in past years. The results will help you decide how hot, cold, wet, or windy it might be!

Date:

Astronomy

Sep. 16, 2011 Rise Set
Actual Time 6:46 AM MDT 7:18 PM MDT
Civil Twilight 6:15 AM MDT 7:48 PM MDT
Nautical Twilight 5:38 AM MDT 8:25 PM MDT
Astronomical Twilight 5:00 AM MDT 9:03 PM MDT
Moon 8:46 PM MDT (9/16) 11:17 AM MDT (9/16)
Length of Visible Light 13h 33m
Length of Day
12h 31m
Waning Gibbous, 84% of the Moon is Illuminated
Sep 16
Waning Gibbous
Sep 20
Last Quarter
Sep 27
New
Oct 3
First Quarter
Oct 11
Full

Hourly Weather History & Observations

Time (MDT) Temp. Dew Point Humidity Pressure Visibility Wind Dir Wind Speed Gust Speed Precip Events Conditions
12:48 AM 53.1 °F 42.1 °F 66% 29.79 in - East 3.5 mph - N/A   Unknown
1:48 AM 50.0 °F 42.1 °F 74% 29.78 in - ESE 6.9 mph - N/A   Unknown
2:48 AM 48.9 °F 41.0 °F 74% 29.78 in - ESE 5.8 mph - N/A   Unknown
3:48 AM 48.0 °F 41.0 °F 77% 29.77 in - ESE 4.6 mph - N/A   Unknown
4:48 AM 48.0 °F 42.1 °F 80% 29.75 in - ESE 4.6 mph - N/A   Unknown
5:48 AM 46.9 °F 41.0 °F 80% 29.75 in - ESE 6.9 mph - N/A   Unknown
6:48 AM 46.0 °F 41.0 °F 83% 29.76 in - Calm Calm - N/A   Unknown
7:48 AM 48.0 °F 42.1 °F 80% 29.77 in - SE 3.5 mph - N/A   Unknown
8:48 AM 54.0 °F 43.0 °F 66% 29.77 in - South 5.8 mph - N/A   Unknown
9:48 AM 62.1 °F 45.0 °F 53% 29.78 in - West 8.1 mph - N/A   Unknown
10:48 AM 68.0 °F 45.0 °F 43% 29.76 in - West 8.1 mph - N/A   Unknown
11:48 AM 73.9 °F 44.1 °F 34% 29.75 in - WNW 11.5 mph - N/A   Unknown
12:48 PM 78.1 °F 42.1 °F 28% 29.73 in - NW 15.0 mph - N/A   Unknown
1:48 PM 78.1 °F 39.9 °F 25% 29.75 in - West 17.3 mph 23.0 mph N/A   Unknown
2:48 PM 77.0 °F 41.0 °F 28% 29.75 in - WNW 13.8 mph 20.7 mph N/A   Unknown
3:48 PM 78.1 °F 42.1 °F 28% 29.74 in - WNW 9.2 mph - N/A   Unknown
4:48 PM 75.0 °F 43.0 °F 32% 29.74 in - NNW 10.4 mph - N/A   Unknown
5:48 PM 73.9 °F 43.0 °F 33% 29.74 in - NNE 3.5 mph - N/A   Unknown
6:48 PM 71.1 °F 43.0 °F 36% 29.76 in - North 4.6 mph - N/A   Unknown
7:48 PM 68.0 °F 43.0 °F 40% 29.77 in - NNE 3.5 mph - N/A   Unknown
8:48 PM 64.9 °F 46.9 °F 52% 29.78 in - Calm Calm - N/A   Unknown
9:48 PM 64.0 °F 50.0 °F 60% 29.79 in - Calm Calm - N/A   Unknown
10:48 PM 61.0 °F 54.0 °F 78% 29.79 in - South 4.6 mph - 0.02 in   Unknown
11:48 PM 60.1 °F 55.0 °F 83% 29.77 in - SSE 4.6 mph - N/A   Unknown